Regional Weather Roundup
Issued by NWS

Home | Current Version | Previous Version | Graphics & Text | Print | Product List | Glossary On
Versions: 1 2 3 4 5 6 7 8 9 10 11 12 13 14 15 16 17 18 19 20 21 22 23 24 25 26 27 28 29 30 31 32 33 34 35 36 37 38 39 40 41 42 43 44 45 46 47 48 49 50
000
ASUS43 KLSX 300810
RWRMO

WEATHER SUMMARY FOR MISSOURI
NATIONAL WEATHER SERVICE SPRINGFIELD MO
300 AM CDT SAT JUL 30 2016

NOTE: "FAIR" INDICATES FEW OR NO CLOUDS BELOW 12,000 FEET WITH NO
       SIGNIFICANT WEATHER AND/OR OBSTRUCTIONS TO VISIBILITY.
       CURRENT SKY AND/OR WEATHER CONDITIONS ARE NOT AVAILABLE FOR
       CHILLICOTHE AND FARMINGTON.

MOZ001>031-035>038-043-044-053-054-300900-
...NORTHERN AND WESTERN MISSOURI...

CITY           SKY/WX    TMP DP  RH WIND       PRES   REMARKS
KANSAS CTY INT CLEAR     65  60  84 NE5       30.01F
KANSAS C DTWN  CLEAR     69  63  81 N3        29.99F
LEE`S SUMMIT   CLEAR     67  63  87 N5        30.01S
ST JOSEPH      CLEAR     63  61  93 N5        30.01F
CHILLICOTHE      N/A     64  62  93 CALM      30.01S
KIRKSVILLE     PTCLDY    64  62  93 NW6       29.99S

$$
MOZ066>068-077>081-088>096-101>105-300900-
...SOUTHWEST MISSOURI...

CITY           SKY/WX    TMP DP  RH WIND       PRES   REMARKS
SPRINGFIELD    CLEAR     71  67  87 CALM      29.99F
JOPLIN         CLEAR     71  69  93 SE3       29.99F
BRANSON        FOG       70  70 100 CALM      30.00F VSB<1/4

$$
MOZ032>034-039>042-045>050-055>058-069>072-300900-
...CENTRAL MISSOURI...

CITY           SKY/WX    TMP DP  RH WIND       PRES   REMARKS
COLUMBIA       CLEAR     68  65  90 CALM      29.97F
JEFFERSON CITY CLEAR     68  66  93 CALM      29.96F
ROLLA          CLEAR     67  65  93 CALM      29.97S
SEDALIA        CLEAR     68  64  87 NW5       29.99F
WHITEMAN AFB   CLEAR     66  66  99 N5        29.98F
OSAGE BEACH    PTCLDY    68  68 100 CALM      29.98F

$$
MOZ051-052-059>065-300900-
...EAST CENTRAL MISSOURI...

CITY           SKY/WX    TMP DP  RH WIND       PRES   REMARKS
ST LOUIS INTL  PTCLDY    73  67  81 NW3       29.95F
SPIRIT OF STL  CLEAR     69  68  96 CALM      29.94S
ST CHARLES     PTCLDY    69  69 100 CALM      29.94S

$$
MOZ072>076-082>087-097>100-106>115-300900-
...SOUTH CENTRAL AND SOUTHEAST MISSOURI...

CITY           SKY/WX    TMP DP  RH WIND       PRES   REMARKS
CAPE GIRARDEAU PTCLDY    69  68  96 CALM      29.94F FOG
FARMINGTON     CLOUDY    72  71  97 CALM      29.97S
POPLAR BLUFF   CLOUDY    71  70  96 W3        29.95S
WEST PLAINS    FOG       70  68  93 CALM      30.01F VSB 1/4

$$



USA.gov is the U.S. government's official web portal to all federal, state and local government web resources and services.